Regional Weather Roundup
Issued by NWS

Home | Current Version | Previous Version | Graphics & Text | Print | Product List | Glossary Off
Versions: 1 2 3 4 5 6 7 8 9 10 11 12 13 14 15 16 17 18 19 20 21 22 23 24 25 26 27 28 29 30 31 32 33 34 35 36 37 38 39 40 41 42 43 44 45 46 47 48 49 50

000
ASUS43 KTOP 170359
RWRKS

WEATHER ROUNDUP FOR KANSAS
NATIONAL WEATHER SERVICE GOODLAND KS
1100 PM CDT WED APR 16 2014

NOTE:  "FAIR" INDICATES FEW OR NO CLOUDS BELOW 12,000 FEET WITH NO
SIGNIFICANT WEATHER AND/OR OBSTRUCTIONS TO VISIBILITY.

KSZ001>006-013>018-027>032-041>047-170500-
NORTHWEST KANSAS

CITY           SKY/WX    TMP DP  RH WIND       PRES   REMARKS
GOODLAND       CLOUDY    43  34  70 NE8       30.12R
HAYS           CLOUDY    48  32  53 NE14      30.10R
HILL CITY      CLOUDY    46  32  58 NE12      30.12R
RUSSELL        CLOUDY    47  34  60 N17G26    30.07R
$$

KSZ061>065-074>080-084>089-170500-
SOUTHWEST KANSAS

CITY           SKY/WX    TMP DP  RH WIND       PRES   REMARKS
DODGE CITY     CLOUDY    49  33  54 NE17      30.06R
ELKHART          N/A     50  29  44 NE17        N/A
GARDEN CITY    CLOUDY    51  32  48 N26G35    30.07R
GREAT BEND     CLOUDY    50  32  50 N18       30.07R
LIBERAL        CLOUDY    54  28  37 NE21G29   30.04R
$$

KSZ066>073-081>083-090>101-170500-
SOUTHEAST KANSAS

CITY           SKY/WX    TMP DP  RH WIND       PRES   REMARKS
CHANUTE        PTCLDY    53  34  48 S13       30.00R
COFFEYVILLE    CLEAR     52  34  50 S10       30.02R
HUTCHINSON     PTCLDY    50  34  54 N20G29    30.05R
NEWTON         PTCLDY    48  30  49 N18G24    30.10R
PARSONS        PTCLDY    55  32  41 S10       30.02R
WICHITA INTL   PTCLDY    55  36  48 N18G24    30.04R
WICHITA JABRA  PTCLDY    52  36  54 N15G24    30.05R
WINFIELD       PTCLDY    52  35  52 S9        30.00R
$$

KSZ007>012-019>026-033>040-048>060-102>105-170500-
NORTHEAST KANSAS

CITY           SKY/WX    TMP DP  RH WIND       PRES   REMARKS
CONCORDIA      CLOUDY    39  30  70 N14G23    30.12R WCI  31
EMPORIA        CLEAR     49  35  58 N17G24    30.06R
LAWRENCE       CLOUDY    50  35  56 N17G24    30.05R
MANHATTAN      CLEAR     44  31  60 N9G22     30.10R
OLATHE IND     PTCLDY    52  36  54 NW10      30.03R
OLATHE EXE     PTCLDY    55  32  41 SW7       30.01R
SALINA         MOCLDY    47  32  56 N17       30.10R
TOPEKA BILLARD CLOUDY    48  33  56 NW8       30.08R
TOPEKA FORBES  PTCLDY    47  33  58 N15       30.07R
$$



USA.gov is the U.S. government's official web portal to all federal, state and local government web resources and services.